Location: ?????
(30.4569°N, 47.8921°E)
Time: 23:11:49
(UTC+00:00)

Cosmos 1605 Rocket - Pass Details

Date: 07 June 2020
Orbit: 945 x 1006 km, 82.9° (Epoch: 07 July)

Event Time Altitude Azimuth Distance (km) Brightness Sun altitude
Rises 01:13:07 0° 180° (S) 3,673 6.7 -7.0°
Reaches altitude 10° 01:15:37 10° 179° (S) 2,736 6.1 -6.5°
Maximum altitude 01:21:54 79° 94° (E) 1,018 4.3 -5.3°
Drops below altitude 10° 01:28:17 10° 8° (N) 2,780 7.0 -4.2°
Sets 01:30:50 0° 8° (N) 3,735 7.6 -3.7°
